Tracking 17694 objects as of 26-May-2016
HD Live streaming from Space Station
objects crossing your sky now

NAVSTAR 37 (USA 117)

Track NAVSTAR 37 (USA 117) now!
NAVSTAR 37 (USA 117) is classified as:


NORAD ID: 23833
Int'l Code: 1996-019A
Perigee: 20,703.3 km
Apogee: 20,751.8 km
Inclination: 54.2 °
Period: 739.9 minutes
Semi major axis: 27098 km
RCS: 4.1981 m2 (large)
Launch date: March 28, 1996
Source: United States (US)
Launch site: AIR FORCE EASTERN TEST RANGE (AFETR)
PRN:
Your satellite tracking list
Your tracking list is empty





NASA's NSSDC Master Catalog

Two Line Element Set (TLE):
1 23833U 96019A   16147.34720120 -.00000054  00000-0  00000+0 0  9991
2 23833  54.2416  47.5793 0008960 290.8147 176.5838  1.94618504147404
Source of the keplerian elements: AFSPC

N2YO: 639